Emerald Express — HO2486 — position and weather

sailwx.info

Track history (hours):
 
Tides and Currents Weather Stations Pressure Air Temp Water Temp Dewpoint Dewpoint Depression Visibility Wind Speed Wind Dir Waves Ship Positions

Emerald Express

Last reported at 2017-Nov-19 23:46 UTC. Time now 2017-Nov-22 14:51 UTC.
Position N 25°60' W 079°45'.

Length 53 m; draft 2 m.

Type: Cargo ship. MMSI: 354580000.

Date/timePositionNaut miles runAvg speedWind from/ knotsBaromVisibWave heightAir tempDewpointWater temp
2017-Nov-19 23:46N 25°60' W 079°45'2 8.4
2017-Nov-19 23:30N 26°01' W 079°48'4 8.3
2017-Nov-19 23:00N 26°02' W 079°52'4 8.0
2017-Nov-19 22:30N 26°04' W 079°56'4 8.4
2017-Nov-19 22:00N 26°05' W 080°01'5 9.4
2017-Nov-19 21:30N 26°06' W 080°06'2 4.7
2017-Nov-19 21:00N 26°04' W 080°07'0 0.8
2017-Nov-19 20:30N 26°04' W 080°08'0 0.0
2017-Nov-19 20:00N 26°04' W 080°08'0 0.0
2017-Nov-19 19:30N 26°04' W 080°08'0 0.0
2017-Nov-19 19:00N 26°04' W 080°08'0 0.0
2017-Nov-19 18:30N 26°04' W 080°08'0 0.0
2017-Nov-19 18:00N 26°04' W 080°08'0 0.0
2017-Nov-19 17:30N 26°04' W 080°08'0 0.0
2017-Nov-19 17:00N 26°04' W 080°08'2 3.8
2017-Nov-19 16:30N 26°05' W 080°07'4 8.4
2017-Nov-19 16:00N 26°05' W 080°02'510.0
2017-Nov-19 15:30N 26°04' W 079°57'510.3
2017-Nov-19 15:00N 26°01' W 079°52'510.0
2017-Nov-19 14:30N 25°59' W 079°47'5 9.9
2017-Nov-19 14:00N 25°58' W 079°41'5 9.8
2017-Nov-19 13:30N 25°56' W 079°36'10 0.3
2017-Nov-18 03:23N 26°01' W 079°47'3 7.4
2017-Nov-18 03:00N 26°01' W 079°50'4 7.9
2017-Nov-18 02:30N 26°02' W 079°54'4 8.1
2017-Nov-18 02:00N 26°04' W 079°58'4 8.1
2017-Nov-18 01:30N 26°05' W 080°02'4 8.0
2017-Nov-18 01:00N 26°05' W 080°07'2 3.8
2017-Nov-18 00:30N 26°04' W 080°08'0 0.2
2017-Nov-18 00:00N 26°04' W 080°08'0 0.0
2017-Nov-17 23:30N 26°04' W 080°08'0 0.0
2017-Nov-17 23:00N 26°04' W 080°08'0 0.0
2017-Nov-17 22:30N 26°04' W 080°08'0 0.0
2017-Nov-17 22:00N 26°04' W 080°08'0 0.0
2017-Nov-17 21:30N 26°04' W 080°08'0 0.0
2017-Nov-17 21:00N 26°04' W 080°08'0 0.0
2017-Nov-17 20:30N 26°04' W 080°08'0 0.0
2017-Nov-17 20:00N 26°04' W 080°08'0 0.0
2017-Nov-17 19:30N 26°04' W 080°08'0 0.2
2017-Nov-17 19:00N 26°04' W 080°08'2 4.5
2017-Nov-17 18:30N 26°06' W 080°07'5 9.2
2017-Nov-17 18:00N 26°05' W 080°02'5 9.3
2017-Nov-17 17:30N 26°04' W 079°57'5 9.4
2017-Nov-17 17:00N 26°04' W 079°51'5 9.6
2017-Nov-17 16:30N 26°03' W 079°46'5 9.6
2017-Nov-17 16:00N 26°03' W 079°41'  
2017-Nov-13 02:00N 26°04' W 080°08'0 0.0
2017-Nov-13 01:30N 26°04' W 080°08'0 0.0
2017-Nov-13 01:00N 26°04' W 080°08'0 0.0
2017-Nov-13 00:30N 26°04' W 080°08'0 0.0
2017-Nov-13 00:00N 26°04' W 080°08'0 0.0
2017-Nov-12 23:30N 26°04' W 080°08'0 0.1
2017-Nov-12 23:00N 26°04' W 080°08'0 0.0
2017-Nov-12 22:30N 26°04' W 080°08'0 0.0
2017-Nov-12 22:00N 26°04' W 080°08'0 0.0
2017-Nov-12 21:30N 26°04' W 080°08'0 0.0
2017-Nov-12 21:00N 26°04' W 080°08'0 0.0
2017-Nov-12 20:30N 26°04' W 080°08'0 0.0
2017-Nov-12 20:00N 26°04' W 080°08'0 0.0
2017-Nov-12 19:30N 26°04' W 080°08'0 0.0
2017-Nov-12 19:00N 26°04' W 080°08'0 0.0
2017-Nov-12 18:30N 26°04' W 080°08'0 0.0
2017-Nov-12 18:00N 26°04' W 080°08'0 0.0
2017-Nov-12 17:30N 26°04' W 080°08'1 2.6
2017-Nov-12 17:00N 26°05' W 080°07'3 5.1
2017-Nov-12 16:30N 26°05' W 080°04'5 9.8
2017-Nov-12 16:00N 26°05' W 079°59'5 9.2
2017-Nov-12 15:30N 26°05' W 079°53'4 8.3
2017-Nov-12 15:00N 26°06' W 079°49'4 8.8
2017-Nov-12 14:30N 26°03' W 079°45'6 9.5
2017-Nov-12 13:50N 25°60' W 079°39'5 9.6
2017-Nov-12 13:21N 25°57' W 079°35'5 9.6
2017-Nov-12 12:52N 25°55' W 079°30'  
Track history (hours):
 
Tides and Currents Weather Stations Pressure Air Temp Water Temp Dewpoint Dewpoint Depression Visibility Wind Speed Wind Dir Waves Ship Positions

Emerald Express

Last reported at 2017-Nov-19 23:46 UTC. Time now 2017-Nov-22 14:51 UTC.
Position N 25°60' W 079°45'.

Length 53 m; draft 2 m.

Type: Cargo ship. MMSI: 354580000.

Date/timePositionNaut miles runAvg speedWind from/ knotsBaromVisibWave heightAir tempDewpointWater temp
2017-Nov-19 23:46N 25°60' W 079°45'2 8.4
2017-Nov-19 23:30N 26°01' W 079°48'4 8.3
2017-Nov-19 23:00N 26°02' W 079°52'4 8.0
2017-Nov-19 22:30N 26°04' W 079°56'4 8.4
2017-Nov-19 22:00N 26°05' W 080°01'5 9.4
2017-Nov-19 21:30N 26°06' W 080°06'2 4.7
2017-Nov-19 21:00N 26°04' W 080°07'0 0.8
2017-Nov-19 20:30N 26°04' W 080°08'0 0.0
2017-Nov-19 20:00N 26°04' W 080°08'0 0.0
2017-Nov-19 19:30N 26°04' W 080°08'0 0.0
2017-Nov-19 19:00N 26°04' W 080°08'0 0.0
2017-Nov-19 18:30N 26°04' W 080°08'0 0.0
2017-Nov-19 18:00N 26°04' W 080°08'0 0.0
2017-Nov-19 17:30N 26°04' W 080°08'0 0.0
2017-Nov-19 17:00N 26°04' W 080°08'2 3.8
2017-Nov-19 16:30N 26°05' W 080°07'4 8.4
2017-Nov-19 16:00N 26°05' W 080°02'510.0
2017-Nov-19 15:30N 26°04' W 079°57'510.3
2017-Nov-19 15:00N 26°01' W 079°52'510.0
2017-Nov-19 14:30N 25°59' W 079°47'5 9.9
2017-Nov-19 14:00N 25°58' W 079°41'5 9.8
2017-Nov-19 13:30N 25°56' W 079°36'10 0.3
2017-Nov-18 03:23N 26°01' W 079°47'3 7.4
2017-Nov-18 03:00N 26°01' W 079°50'4 7.9
2017-Nov-18 02:30N 26°02' W 079°54'4 8.1
2017-Nov-18 02:00N 26°04' W 079°58'4 8.1
2017-Nov-18 01:30N 26°05' W 080°02'4 8.0
2017-Nov-18 01:00N 26°05' W 080°07'2 3.8
2017-Nov-18 00:30N 26°04' W 080°08'0 0.2
2017-Nov-18 00:00N 26°04' W 080°08'0 0.0
2017-Nov-17 23:30N 26°04' W 080°08'0 0.0
2017-Nov-17 23:00N 26°04' W 080°08'0 0.0
2017-Nov-17 22:30N 26°04' W 080°08'0 0.0
2017-Nov-17 22:00N 26°04' W 080°08'0 0.0
2017-Nov-17 21:30N 26°04' W 080°08'0 0.0
2017-Nov-17 21:00N 26°04' W 080°08'0 0.0
2017-Nov-17 20:30N 26°04' W 080°08'0 0.0
2017-Nov-17 20:00N 26°04' W 080°08'0 0.0
2017-Nov-17 19:30N 26°04' W 080°08'0 0.2
2017-Nov-17 19:00N 26°04' W 080°08'2 4.5
2017-Nov-17 18:30N 26°06' W 080°07'5 9.2
2017-Nov-17 18:00N 26°05' W 080°02'5 9.3
2017-Nov-17 17:30N 26°04' W 079°57'5 9.4
2017-Nov-17 17:00N 26°04' W 079°51'5 9.6
2017-Nov-17 16:30N 26°03' W 079°46'5 9.6
2017-Nov-17 16:00N 26°03' W 079°41'  
2017-Nov-13 02:00N 26°04' W 080°08'0 0.0
2017-Nov-13 01:30N 26°04' W 080°08'0 0.0
2017-Nov-13 01:00N 26°04' W 080°08'0 0.0
2017-Nov-13 00:30N 26°04' W 080°08'0 0.0
2017-Nov-13 00:00N 26°04' W 080°08'0 0.0
2017-Nov-12 23:30N 26°04' W 080°08'0 0.1
2017-Nov-12 23:00N 26°04' W 080°08'0 0.0
2017-Nov-12 22:30N 26°04' W 080°08'0 0.0
2017-Nov-12 22:00N 26°04' W 080°08'0 0.0
2017-Nov-12 21:30N 26°04' W 080°08'0 0.0
2017-Nov-12 21:00N 26°04' W 080°08'0 0.0
2017-Nov-12 20:30N 26°04' W 080°08'0 0.0
2017-Nov-12 20:00N 26°04' W 080°08'0 0.0
2017-Nov-12 19:30N 26°04' W 080°08'0 0.0
2017-Nov-12 19:00N 26°04' W 080°08'0 0.0
2017-Nov-12 18:30N 26°04' W 080°08'0 0.0
2017-Nov-12 18:00N 26°04' W 080°08'0 0.0
2017-Nov-12 17:30N 26°04' W 080°08'1 2.6
2017-Nov-12 17:00N 26°05' W 080°07'3 5.1
2017-Nov-12 16:30N 26°05' W 080°04'5 9.8
2017-Nov-12 16:00N 26°05' W 079°59'5 9.2
2017-Nov-12 15:30N 26°05' W 079°53'4 8.3
2017-Nov-12 15:00N 26°06' W 079°49'4 8.8
2017-Nov-12 14:30N 26°03' W 079°45'6 9.5
2017-Nov-12 13:50N 25°60' W 079°39'5 9.6
2017-Nov-12 13:21N 25°57' W 079°35'5 9.6
2017-Nov-12 12:52N 25°55' W 079°30'  

Dump ship's entire track history